Appleton, MN

6:28 AM CST on January 20, 2017 (GMT -0600)
Appleton Municipal

Weather History for KAQP - May, 2012

Change the Weather History Date:

Wednesday, May 2, 2012

  Actual Average Record
Temperature  
Mean Temperature 63 °F -  
Max Temperature 78 °F 63 °F 84 °F (2015)
Min Temperature 48 °F 38 °F 23 °F (2002)
Degree Days  
Heating Degree Days 2    
Growing Degree Days 13 (Base 50)    
Moisture  
Dew Point 48 °F    
Average Humidity 60    
Maximum Humidity 100    
Minimum Humidity 21    
Precipitation  
Precipitation 0.05 in - - ()
Sea Level Pressure  
Sea Level Pressure 29.67 in    
Wind  
Wind Speed 5 mph (South)    
Max Wind Speed 9 mph    
Max Gust Speed -    
Visibility 9 miles    
Events Rain , Thunderstorm    
Averages and records for this station are not official NWS values.
T = Trace of Precipitation, MM = Missing Value Source: NWS Daily Summary

Daily Weather History Graph

Daily Weather History Graph

Search for Another Location

Airport or City:

Trip Planner

Search our weather history database for the weather conditions in past years. The results will help you decide how hot, cold, wet, or windy it might be!

Date:

Astronomy

May. 02, 2012 Rise Set
Actual Time 6:10 AM CDT 8:32 PM CDT
Civil Twilight 5:37 AM CDT 9:04 PM CDT
Nautical Twilight 4:57 AM CDT 9:45 PM CDT
Astronomical Twilight 4:11 AM CDT 10:32 PM CDT
Moon 4:36 PM CDT (5/2) 3:52 AM CDT (5/2)
Length of Visible Light 15h 27m
Length of Day
14h 21m
Waxing Gibbous, 83% of the Moon is Illuminated
May 2
Waxing Gibbous
May 5
Full
May 12
Last Quarter
May 20
New
May 28
First Quarter

Hourly Weather History & Observations

Time (CDT) Temp. Dew Point Humidity Pressure Visibility Wind Dir Wind Speed Gust Speed Precip Events Conditions
12:15 AM 62.6 °F 53.6 °F 72% 29.54 in 10.0 mi South 8.1 mph - N/A   Scattered Clouds
12:35 AM 60.8 °F 53.6 °F 77% 29.54 in 10.0 mi South 5.8 mph - N/A   Scattered Clouds
12:55 AM 59.0 °F 53.6 °F 82% 29.53 in 10.0 mi South 4.6 mph - N/A   Clear
1:15 AM 57.2 °F 53.6 °F 88% 29.55 in 10.0 mi SSE 4.6 mph - N/A   Clear
1:34 AM 57.2 °F 53.6 °F 88% 29.55 in 10.0 mi Calm Calm - N/A   Clear
2:15 AM 57.2 °F 53.6 °F 88% 29.56 in 10.0 mi South 4.6 mph - N/A   Clear
2:35 AM 55.4 °F 53.6 °F 94% 29.56 in 10.0 mi SSE 6.9 mph - N/A   Clear
2:55 AM 55.4 °F 53.6 °F 94% 29.58 in 10.0 mi SSW 6.9 mph - N/A   Clear
3:14 AM 55.4 °F 53.6 °F 94% 29.58 in 10.0 mi Calm Calm - N/A   Scattered Clouds
3:35 AM 57.2 °F 53.6 °F 88% 29.59 in 10.0 mi South 4.6 mph - N/A   Mostly Cloudy
3:55 AM 55.4 °F 53.6 °F 94% 29.59 in 10.0 mi South 3.5 mph - N/A   Scattered Clouds
4:15 AM 55.4 °F 53.6 °F 94% 29.60 in 10.0 mi WSW 4.6 mph - N/A   Clear
4:35 AM 51.8 °F 51.8 °F 100% 29.61 in 10.0 mi West 4.6 mph - N/A   Scattered Clouds
4:55 AM 51.8 °F 50.0 °F 94% 29.62 in 7.0 mi West 5.8 mph - N/A   Mostly Cloudy
5:15 AM 51.8 °F 51.8 °F 100% 29.62 in 5.0 mi Calm Calm - N/A   Scattered Clouds
5:35 AM 50.0 °F 48.2 °F 94% 29.63 in 1.8 mi West 3.5 mph - N/A   Clear
5:55 AM 50.0 °F 48.2 °F 94% 29.63 in 2.5 mi West 4.6 mph - N/A   Clear
6:15 AM 48.2 °F 48.2 °F 100% 29.64 in 2.5 mi WNW 5.8 mph - N/A   Clear
6:35 AM 48.2 °F 48.2 °F 100% 29.65 in 2.0 mi West 3.5 mph - N/A   Clear
6:55 AM 50.0 °F 48.2 °F 94% 29.65 in 4.0 mi West 3.5 mph - N/A   Clear
7:14 AM 51.8 °F 51.8 °F 100% 29.67 in 5.0 mi Calm Calm - N/A   Clear
7:34 AM 53.6 °F 51.8 °F 94% 29.68 in 7.0 mi WSW 3.5 mph - N/A   Clear
7:55 AM 55.4 °F 51.8 °F 88% 29.68 in 10.0 mi West 4.6 mph - N/A   Clear
8:15 AM 57.2 °F 51.8 °F 82% 29.69 in 10.0 mi NW 4.6 mph - N/A   Clear
8:35 AM 57.2 °F 51.8 °F 82% 29.70 in 10.0 mi NW 3.5 mph - N/A   Clear
8:55 AM 60.8 °F 51.8 °F 72% 29.70 in 10.0 mi Calm Calm - N/A   Clear
9:15 AM 62.6 °F 51.8 °F 68% 29.71 in 10.0 mi NNW 4.6 mph - N/A   Clear
9:35 AM 64.4 °F 51.8 °F 64% 29.71 in 10.0 mi Calm Calm - N/A   Clear
9:54 AM 66.2 °F 51.8 °F 60% 29.71 in 10.0 mi NW 4.6 mph - N/A   Clear
10:15 AM 68.0 °F 50.0 °F 52% 29.71 in 10.0 mi NW 6.9 mph - N/A   Clear
10:35 AM 69.8 °F 48.2 °F 46% 29.71 in 10.0 mi NNW 8.1 mph - N/A   Clear
10:55 AM 71.6 °F 44.6 °F 38% 29.72 in 10.0 mi North 3.5 mph - N/A   Clear
11:14 AM 73.4 °F 44.6 °F 36% 29.73 in 10.0 mi NNW 3.5 mph - N/A   Clear
11:34 AM 73.4 °F 39.2 °F 29% 29.73 in 10.0 mi NNW 6.9 mph - N/A   Clear
11:54 AM 73.4 °F 41.0 °F 31% 29.73 in 10.0 mi Calm Calm - N/A   Clear
12:14 PM 73.4 °F 41.0 °F 31% 29.74 in 10.0 mi Calm Calm - N/A   Clear
12:34 PM 75.2 °F 39.2 °F 27% 29.74 in 10.0 mi Calm Calm - N/A   Clear
12:54 PM 75.2 °F 39.2 °F 27% 29.73 in 10.0 mi North 3.5 mph - N/A   Clear
1:14 PM 75.2 °F 39.2 °F 27% 29.72 in 10.0 mi Calm Calm - N/A   Clear
1:34 PM 78.8 °F 39.2 °F 24% 29.72 in 10.0 mi East 4.6 mph - N/A   Clear
1:55 PM 77.0 °F 37.4 °F 24% 29.72 in 10.0 mi Calm Calm - N/A   Clear
2:15 PM 78.8 °F 35.6 °F 21% 29.72 in 10.0 mi South 3.5 mph - N/A   Clear
2:34 PM 78.8 °F 37.4 °F 23% 29.72 in 10.0 mi South 5.8 mph - N/A   Clear
2:54 PM 78.8 °F 37.4 °F 23% 29.72 in 10.0 mi South 5.8 mph - N/A   Clear
3:14 PM 77.0 °F 35.6 °F 22% 29.73 in 10.0 mi Calm Calm - N/A   Clear
3:55 PM 75.2 °F 37.4 °F 25% 29.72 in 10.0 mi Calm Calm - N/A   Clear
4:14 PM 77.0 °F 39.2 °F 26% 29.73 in 10.0 mi South 3.5 mph - N/A   Clear
4:34 PM 78.8 °F 35.6 °F 21% 29.72 in 10.0 mi Calm Calm - N/A   Scattered Clouds
4:55 PM 77.0 °F 39.2 °F 26% 29.72 in 10.0 mi East 5.8 mph - N/A   Clear
5:14 PM 78.8 °F 42.8 °F 28% 29.71 in 10.0 mi SE 5.8 mph - N/A   Clear
5:54 PM 78.8 °F 42.8 °F 28% 29.70 in 10.0 mi SE 8.1 mph - N/A   Clear
6:14 PM 78.8 °F 41.0 °F 26% 29.70 in 10.0 mi SE 4.6 mph - N/A   Clear
6:34 PM 78.8 °F 44.6 °F 30% 29.69 in 10.0 mi SE 8.1 mph - N/A   Clear
6:55 PM 77.0 °F 50.0 °F 39% 29.69 in 10.0 mi South 8.1 mph - N/A   Clear
7:14 PM 75.2 °F 51.8 °F 44% 29.69 in 10.0 mi SE 4.6 mph - N/A   Clear
7:34 PM 75.2 °F 51.8 °F 44% 29.68 in 10.0 mi SE 8.1 mph - N/A   Clear
7:54 PM 75.2 °F 51.8 °F 44% 29.68 in 10.0 mi SE 5.8 mph - N/A   Clear
8:14 PM 73.4 °F 53.6 °F 50% 29.67 in 10.0 mi SE 6.9 mph - N/A   Clear
8:34 PM 71.6 °F 53.6 °F 53% 29.68 in 10.0 mi ESE 5.8 mph - N/A   Clear
8:54 PM 69.8 °F 46.4 °F 43% 29.69 in 10.0 mi East 9.2 mph - N/A   Mostly Cloudy
9:15 PM 69.8 °F 46.4 °F 43% 29.68 in 10.0 mi East 8.1 mph - N/A   Mostly Cloudy
9:35 PM 66.2 °F 46.4 °F 49% 29.68 in 10.0 mi East 6.9 mph - N/A   Scattered Clouds
9:55 PM 66.2 °F 51.8 °F 60% 29.67 in 10.0 mi ESE 8.1 mph - N/A Rain , Thunderstorm Thunderstorms and Rain
10:15 PM 64.4 °F 55.4 °F 73% 29.69 in 10.0 mi WNW 3.5 mph - 0.05 in Rain , Thunderstorm Thunderstorms and Rain
11:15 PM 62.6 °F 59.0 °F 88% 29.71 in 10.0 mi ESE 4.6 mph - N/A   Scattered Clouds
11:34 PM 60.8 °F 57.2 °F 88% 29.70 in 10.0 mi East 3.5 mph - N/A   Clear
11:54 PM 59.0 °F 57.2 °F 94% 29.71 in 10.0 mi East 4.6 mph - N/A   Scattered Clouds